This is the latest recevied weather packets stored in our database for station/object IA5FYI-13. If no packets are shown the sender has not sent any weather packets the latest 10 day(s).
| Time | Temp. | Humidity | Pressure | Rain* | Wind** | Luminosity | Snow |
|---|---|---|---|---|---|---|---|
| 1777648212 | 18.89° C | 60% | 1020.7 hPa | 0 mm | - | - | - |
| 1777647909 | 20° C | 57% | 1020.7 hPa | 0 mm | - | - | - |
| 1777647309 | 18.89° C | 61% | 1020.7 hPa | 0 mm | - | - | - |
| 1777647013 | 20° C | 61% | 1020.7 hPa | 0 mm | - | - | - |
| 1777646712 | 20° C | 53% | 1020.7 hPa | 0 mm | - | - | - |
| 1777646412 | 20° C | 56% | 1020.7 hPa | 0 mm | - | - | - |
| 1777646108 | 21.11° C | 52% | 1020.7 hPa | 0 mm | - | - | - |
| 1777645822 | 21.11° C | 43% | 1020.7 hPa | 0 mm | - | - | - |
| 1777645509 | 22.22° C | 41% | 1020.3 hPa | 0 mm | - | - | - |
| 1777645212 | 21.11° C | 43% | 1020.7 hPa | 0 mm | - | - | - |
| 1777644912 | 21.11° C | 45% | 1020.7 hPa | 0 mm | - | - | - |
| 1777644612 | 21.11° C | 43% | 1020.7 hPa | 0 mm | - | - | - |
| 1777644308 | 21.11° C | 42% | 1020.7 hPa | 0 mm | - | - | - |
| 1777644033 | 21.11° C | 43% | 1021 hPa | 0 mm | - | - | - |
| 1777643708 | 21.11° C | 44% | 1021 hPa | 0 mm | - | - | - |
| 1777643412 | 21.11° C | 44% | 1020.7 hPa | 0 mm | - | - | - |
| 1777642812 | 21.11° C | 44% | 1020.7 hPa | 0 mm | - | - | - |
| 1777642229 | 21.11° C | 43% | 1021 hPa | 0 mm | - | - | - |
| 1777641909 | 21.11° C | 40% | 1021 hPa | 0 mm | - | - | - |
| 1777641613 | 21.11° C | 42% | 1020.7 hPa | 0 mm | - | - | - |
| 1777641012 | 21.11° C | 41% | 1020.7 hPa | 0 mm | - | - | - |
| 1777640433 | 20° C | 43% | 1021.3 hPa | 0 mm | - | - | - |
| 1777639813 | 20° C | 40% | 1021.3 hPa | 0 mm | - | - | - |
| 1777639213 | 20° C | 42% | 1021.3 hPa | 0 mm | - | - | - |
| 1777638910 | 20° C | 41% | 1021.3 hPa | 0 mm | - | - | - |
* Rain latest hour (hover to see other rain measurements)
** Current wind speed in m/s (hover to see current wind gust speed)